User: anonymous   Login
Location: Goettingen
(51.5300°N, 9.9433°E)
Time: 12:53:57
(UTC+02:00)
Language:

Tiangong - Orbit

View from above orbital plane
View from above orbital plane
View from above satellite
View from above satellite

Ground track
Ground track

The orbit data is extracted from the following two-line orbital elements,

1 48274U 21035A   21291.24931988 -.00000345  00000-0  00000+0 0  9997
2 48274  41.4700 252.5472 0002255 237.3257 264.5747 15.61500679 26949
Epoch (UTC): 18 October 2021 05:59:01
Eccentricity: 0.0002255
inclination: 41.4700°
perigee height: 382 km
apogee height: 385 km
right ascension of ascending node: 252.5472°
argument of perigee: 237.3257°
revolutions per day: 15.61500679
mean anomaly at epoch: 264.5747°
orbit number at epoch: 2694

The dashed part of the orbit path shows where the satellite is in the earth's shadow,  

DLR